Tracking 19720 objects as of 26-Jun-2019
HD Live streaming from Space Station
objects crossing your sky now

SL-12 DEB


SL-12 DEB is no longer on orbit


NORAD ID: 38548
Int'l Code: 1992-047AU
Perigee: N/A
Apogee: N/A
Inclination: N/A
Period: N/A
Semi major axis: N/A
RCS: N/A
Launch date: July 30, 1992
Source: Commonwealth of Independent States (former USSR) (CIS)
Launch site: TYURATAM MISSILE AND SPACE COMPLEX (TTMTR)
Decay date: 2013-05-17

Note: This is SATELLITE DEBRIS
aabbcc
Your satellite tracking list
Your tracking list is empty




NASA's NSSDC Master Catalog

Two Line Element Set (TLE):
1 38548U 92047AU  13124.03804040  .14934922  00000-0  11097+1 0  9992
2 38548 064.4385 358.8426 3750481 054.6041 334.4346 07.86755794 25882
Source of the keplerian elements: AFSPC